Information on these data can be found in provided Readme document
Contact Info: Zachary Fasnacht (zachary.fasnacht@ssaihq.com); Nickolay Krotkov (nickolay.a.krotkov@nasa.gov); Lok Lamsal (lok.lamsal@nasa.gov)

FillValue: -999.
ScaleFactor: 1e15
Units: molecules/cm^2

Date(yyyy-mm-dd),City,Country,LonCenter,LatCenter,BoundingCoordinates,Median,Q1,Q3,Mean,Baseline_Median,Baseline_Q1,Baseline_Q3,Baseline_Mean,NumGoodSamples,NumTotalSamples
2015-01-01,Edmonton,Canada,-113.4938,53.5461,[-113.9938 53.0461 -112.9938 54.0461],2.22,1.327,3.396,2.462,2.208,1.484,3.17,2.441,112.0,675.0
2015-01-02,Edmonton,Canada,-113.4938,53.5461,[-113.9938 53.0461 -112.9938 54.0461],2.229,1.331,3.679,2.68,2.267,1.482,3.249,2.524,129.0,671.0
2015-01-03,Edmonton,Canada,-113.4938,53.5461,[-113.9938 53.0461 -112.9938 54.0461],2.175,1.172,2.879,2.329,2.138,1.444,3.11,2.427,97.0,674.0
2015-01-04,Edmonton,Canada,-113.4938,53.5461,[-113.9938 53.0461 -112.9938 54.0461],2.335,1.609,3.813,3.065,2.28,1.545,3.356,2.638,135.0,679.0
2015-01-05,Edmonton,Canada,-113.4938,53.5461,[-113.9938 53.0461 -112.9938 54.0461],2.335,1.609,3.813,3.065,2.472,1.614,3.688,2.768,135.0,675.0
2015-01-06,Edmonton,Canada,-113.4938,53.5461,[-113.9938 53.0461 -112.9938 54.0461],2.274,1.313,4.266,3.189,2.445,1.531,4.142,2.942,104.0,676.0
2015-01-07,Edmonton,Canada,-113.4938,53.5461,[-113.9938 53.0461 -112.9938 54.0461],2.224,1.213,4.094,3.1,2.434,1.463,4.226,2.94,120.0,672.0
2015-01-08,Edmonton,Canada,-113.4938,53.5461,[-113.9938 53.0461 -112.9938 54.0461],2.455,1.514,3.457,3.019,2.284,1.487,3.925,2.865,130.0,676.0
2015-01-09,Edmonton,Canada,-113.4938,53.5461,[-113.9938 53.0461 -112.9938 54.0461],2.455,1.514,3.457,3.019,2.296,1.474,4.002,2.864,130.0,619.0
2015-01-10,Edmonton,Canada,-113.4938,53.5461,[-113.9938 53.0461 -112.9938 54.0461],2.601,1.745,3.898,3.144,2.199,1.415,3.875,2.787,121.0,634.0
2015-01-11,Edmonton,Canada,-113.4938,53.5461,[-113.9938 53.0461 -112.9938 54.0461],2.667,2.029,3.898,3.31,2.138,1.437,3.566,2.77,122.0,631.0
2015-01-12,Edmonton,Canada,-113.4938,53.5461,[-113.9938 53.0461 -112.9938 54.0461],2.696,2.029,4.418,3.472,2.182,1.472,3.776,2.869,106.0,638.0
2015-01-13,Edmonton,Canada,-113.4938,53.5461,[-113.9938 53.0461 -112.9938 54.0461],2.667,1.903,3.852,3.261,2.332,1.482,3.724,2.899,122.0,643.0
2015-01-14,Edmonton,Canada,-113.4938,53.5461,[-113.9938 53.0461 -112.9938 54.0461],2.667,1.903,3.852,3.261,2.311,1.454,3.599,2.855,122.0,637.0
2015-01-15,Edmonton,Canada,-113.4938,53.5461,[-113.9938 53.0461 -112.9938 54.0461],2.418,1.744,3.344,3.027,2.303,1.528,3.617,2.851,136.0,624.0
2015-01-16,Edmonton,Canada,-113.4938,53.5461,[-113.9938 53.0461 -112.9938 54.0461],2.677,1.745,3.569,3.22,2.357,1.572,3.722,2.94,131.0,628.0
2015-01-17,Edmonton,Canada,-113.4938,53.5461,[-113.9938 53.0461 -112.9938 54.0461],2.289,1.222,3.12,2.708,2.231,1.435,3.573,2.775,128.0,637.0
2015-01-18,Edmonton,Canada,-113.4938,53.5461,[-113.9938 53.0461 -112.9938 54.0461],2.104,1.119,3.074,2.497,2.292,1.442,3.698,2.834,145.0,632.0
2015-01-19,Edmonton,Canada,-113.4938,53.5461,[-113.9938 53.0461 -112.9938 54.0461],1.937,1.087,2.593,1.851,2.25,1.441,3.597,2.695,118.0,637.0
2015-01-20,Edmonton,Canada,-113.4938,53.5461,[-113.9938 53.0461 -112.9938 54.0461],2.026,1.119,2.593,1.9,2.038,1.304,3.516,2.559,128.0,642.0
2015-01-21,Edmonton,Canada,-113.4938,53.5461,[-113.9938 53.0461 -112.9938 54.0461],2.026,1.119,2.593,1.9,2.008,1.322,3.087,2.235,128.0,635.0
2015-01-22,Edmonton,Canada,-113.4938,53.5461,[-113.9938 53.0461 -112.9938 54.0461],1.937,1.087,2.593,1.871,1.96,1.244,3.151,2.274,117.0,637.0
2015-01-23,Edmonton,Canada,-113.4938,53.5461,[-113.9938 53.0461 -112.9938 54.0461],1.744,0.983,2.395,1.763,1.963,1.177,3.263,2.275,107.0,636.0
2015-01-24,Edmonton,Canada,-113.4938,53.5461,[-113.9938 53.0461 -112.9938 54.0461],1.914,1.031,2.579,1.91,1.874,1.043,3.188,2.214,114.0,683.0
2015-01-25,Edmonton,Canada,-113.4938,53.5461,[-113.9938 53.0461 -112.9938 54.0461],1.914,1.044,2.579,1.92,1.935,1.092,3.17,2.267,118.0,666.0
2015-01-26,Edmonton,Canada,-113.4938,53.5461,[-113.9938 53.0461 -112.9938 54.0461],1.899,1.027,2.455,1.882,1.996,1.111,3.205,2.295,108.0,679.0
2015-01-27,Edmonton,Canada,-113.4938,53.5461,[-113.9938 53.0461 -112.9938 54.0461],1.937,1.087,2.733,1.98,1.837,0.996,3.173,2.185,147.0,674.0
2015-01-28,Edmonton,Canada,-113.4938,53.5461,[-113.9938 53.0461 -112.9938 54.0461],1.914,1.087,2.718,1.978,1.721,0.972,3.049,2.129,131.0,681.0
2015-01-29,Edmonton,Canada,-113.4938,53.5461,[-113.9938 53.0461 -112.9938 54.0461],1.914,1.087,2.718,1.978,1.839,1.152,3.109,2.243,131.0,685.0
2015-01-30,Edmonton,Canada,-113.4938,53.5461,[-113.9938 53.0461 -112.9938 54.0461],1.937,1.098,2.799,2.03,1.839,1.164,3.015,2.221,117.0,679.0
2015-01-31,Edmonton,Canada,-113.4938,53.5461,[-113.9938 53.0461 -112.9938 54.0461],1.97,1.135,2.718,2.024,1.844,1.14,2.838,2.158,117.0,665.0
2015-02-01,Edmonton,Canada,-113.4938,53.5461,[-113.9938 53.0461 -112.9938 54.0461],2.104,1.363,2.982,2.195,1.913,1.183,2.973,2.225,116.0,667.0
2015-02-02,Edmonton,Canada,-113.4938,53.5461,[-113.9938 53.0461 -112.9938 54.0461],2.284,1.679,3.047,2.384,1.925,1.236,2.843,2.18,99.0,674.0
2015-02-03,Edmonton,Canada,-113.4938,53.5461,[-113.9938 53.0461 -112.9938 54.0461],2.369,1.524,3.151,2.425,2.025,1.301,2.869,2.235,119.0,665.0
2015-02-04,Edmonton,Canada,-113.4938,53.5461,[-113.9938 53.0461 -112.9938 54.0461],1.97,1.078,2.982,2.093,1.995,1.248,2.94,2.221,119.0,670.0
2015-02-05,Edmonton,Canada,-113.4938,53.5461,[-113.9938 53.0461 -112.9938 54.0461],1.97,1.098,2.94,2.086,2.078,1.309,3.038,2.285,128.0,677.0
2015-02-06,Edmonton,Canada,-113.4938,53.5461,[-113.9938 53.0461 -112.9938 54.0461],1.973,1.135,2.982,2.123,2.094,1.306,3.051,2.291,123.0,670.0
2015-02-07,Edmonton,Canada,-113.4938,53.5461,[-113.9938 53.0461 -112.9938 54.0461],2.08,1.197,2.847,2.13,2.204,1.392,3.106,2.396,135.0,672.0
2015-02-08,Edmonton,Canada,-113.4938,53.5461,[-113.9938 53.0461 -112.9938 54.0461],1.924,1.135,2.733,1.999,2.234,1.419,3.124,2.391,139.0,669.0
2015-02-09,Edmonton,Canada,-113.4938,53.5461,[-113.9938 53.0461 -112.9938 54.0461],1.89,1.135,2.733,1.99,2.172,1.41,2.998,2.315,135.0,675.0
2015-02-10,Edmonton,Canada,-113.4938,53.5461,[-113.9938 53.0461 -112.9938 54.0461],1.89,1.135,2.733,1.99,2.124,1.365,2.949,2.25,135.0,618.0
2015-02-11,Edmonton,Canada,-113.4938,53.5461,[-113.9938 53.0461 -112.9938 54.0461],1.841,0.871,2.526,1.859,2.109,1.362,2.962,2.254,96.0,631.0
2015-02-12,Edmonton,Canada,-113.4938,53.5461,[-113.9938 53.0461 -112.9938 54.0461],1.841,1.118,2.482,1.846,2.104,1.414,2.948,2.244,112.0,628.0
2015-02-13,Edmonton,Canada,-113.4938,53.5461,[-113.9938 53.0461 -112.9938 54.0461],1.812,0.833,2.416,1.795,2.017,1.275,2.858,2.147,116.0,638.0
2015-02-14,Edmonton,Canada,-113.4938,53.5461,[-113.9938 53.0461 -112.9938 54.0461],1.768,0.833,2.416,1.751,2.093,1.291,2.943,2.19,120.0,643.0
2015-02-15,Edmonton,Canada,-113.4938,53.5461,[-113.9938 53.0461 -112.9938 54.0461],1.686,0.729,2.482,1.731,2.044,1.218,2.931,2.127,110.0,641.0
2015-02-16,Edmonton,Canada,-113.4938,53.5461,[-113.9938 53.0461 -112.9938 54.0461],1.602,0.664,2.394,1.624,1.932,1.123,2.833,2.041,104.0,630.0
2015-02-17,Edmonton,Canada,-113.4938,53.5461,[-113.9938 53.0461 -112.9938 54.0461],1.514,0.664,2.394,1.616,1.881,1.102,2.741,1.995,108.0,634.0
2015-02-18,Edmonton,Canada,-113.4938,53.5461,[-113.9938 53.0461 -112.9938 54.0461],1.195,0.598,2.031,1.353,1.748,1.043,2.72,1.948,90.0,642.0
2015-02-19,Edmonton,Canada,-113.4938,53.5461,[-113.9938 53.0461 -112.9938 54.0461],1.686,1.118,2.416,1.695,1.757,1.096,2.667,1.924,111.0,635.0
2015-02-20,Edmonton,Canada,-113.4938,53.5461,[-113.9938 53.0461 -112.9938 54.0461],1.503,0.831,2.38,1.589,1.606,1.019,2.469,1.805,113.0,638.0
2015-02-21,Edmonton,Canada,-113.4938,53.5461,[-113.9938 53.0461 -112.9938 54.0461],1.526,0.888,2.388,1.614,1.58,1.013,2.31,1.769,151.0,643.0
2015-02-22,Edmonton,Canada,-113.4938,53.5461,[-113.9938 53.0461 -112.9938 54.0461],1.453,0.831,2.156,1.557,1.554,0.964,2.249,1.76,139.0,634.0
2015-02-23,Edmonton,Canada,-113.4938,53.5461,[-113.9938 53.0461 -112.9938 54.0461],1.415,0.759,2.066,1.453,1.607,1.006,2.368,1.777,144.0,633.0
2015-02-24,Edmonton,Canada,-113.4938,53.5461,[-113.9938 53.0461 -112.9938 54.0461],1.427,0.813,2.072,1.487,1.634,1.025,2.457,1.812,175.0,631.0
2015-02-25,Edmonton,Canada,-113.4938,53.5461,[-113.9938 53.0461 -112.9938 54.0461],1.473,0.831,2.212,1.635,1.645,1.027,2.644,1.909,185.0,678.0
2015-02-26,Edmonton,Canada,-113.4938,53.5461,[-113.9938 53.0461 -112.9938 54.0461],1.453,0.831,2.151,1.606,1.671,1.055,2.616,1.945,208.0,662.0
2015-02-27,Edmonton,Canada,-113.4938,53.5461,[-113.9938 53.0461 -112.9938 54.0461],1.431,0.813,2.1,1.561,1.74,1.079,2.741,1.986,202.0,670.0
2015-02-28,Edmonton,Canada,-113.4938,53.5461,[-113.9938 53.0461 -112.9938 54.0461],1.453,0.831,2.19,1.626,1.776,1.102,2.818,2.085,236.0,665.0
2015-03-01,Edmonton,Canada,-113.4938,53.5461,[-113.9938 53.0461 -112.9938 54.0461],1.453,0.842,2.212,1.634,1.771,1.15,2.909,2.072,236.0,672.0
2015-03-02,Edmonton,Canada,-113.4938,53.5461,[-113.9938 53.0461 -112.9938 54.0461],1.453,0.842,2.354,1.642,1.798,1.165,2.968,2.107,246.0,676.0
2015-03-03,Edmonton,Canada,-113.4938,53.5461,[-113.9938 53.0461 -112.9938 54.0461],1.473,0.885,2.388,1.674,1.861,1.217,3.082,2.277,239.0,672.0
2015-03-04,Edmonton,Canada,-113.4938,53.5461,[-113.9938 53.0461 -112.9938 54.0461],1.473,0.885,2.388,1.678,1.947,1.24,3.097,2.327,235.0,661.0
2015-03-05,Edmonton,Canada,-113.4938,53.5461,[-113.9938 53.0461 -112.9938 54.0461],1.647,0.94,2.678,1.89,2.028,1.261,3.181,2.387,265.0,667.0
2015-03-06,Edmonton,Canada,-113.4938,53.5461,[-113.9938 53.0461 -112.9938 54.0461],1.608,0.893,2.706,1.876,2.118,1.287,3.237,2.43,234.0,674.0
2015-03-07,Edmonton,Canada,-113.4938,53.5461,[-113.9938 53.0461 -112.9938 54.0461],1.695,0.925,2.874,1.959,2.18,1.332,3.307,2.487,223.0,667.0
2015-03-08,Edmonton,Canada,-113.4938,53.5461,[-113.9938 53.0461 -112.9938 54.0461],1.695,0.915,3.024,2.004,2.135,1.3,3.284,2.472,185.0,672.0
2015-03-09,Edmonton,Canada,-113.4938,53.5461,[-113.9938 53.0461 -112.9938 54.0461],1.918,0.996,3.344,2.318,2.138,1.301,3.276,2.487,223.0,678.0
2015-03-10,Edmonton,Canada,-113.4938,53.5461,[-113.9938 53.0461 -112.9938 54.0461],2.174,1.272,3.42,2.477,2.18,1.339,3.39,2.527,207.0,672.0
2015-03-11,Edmonton,Canada,-113.4938,53.5461,[-113.9938 53.0461 -112.9938 54.0461],2.64,1.442,3.796,2.655,2.305,1.403,3.436,2.566,187.0,672.0
2015-03-12,Edmonton,Canada,-113.4938,53.5461,[-113.9938 53.0461 -112.9938 54.0461],2.64,1.159,3.717,2.603,2.19,1.333,3.623,2.62,177.0,679.0
2015-03-13,Edmonton,Canada,-113.4938,53.5461,[-113.9938 53.0461 -112.9938 54.0461],2.848,1.256,3.796,2.683,2.304,1.354,3.497,2.636,158.0,706.0
2015-03-14,Edmonton,Canada,-113.4938,53.5461,[-113.9938 53.0461 -112.9938 54.0461],2.919,1.572,3.925,2.832,2.236,1.368,3.521,2.608,148.0,652.0
2015-03-15,Edmonton,Canada,-113.4938,53.5461,[-113.9938 53.0461 -112.9938 54.0461],2.919,1.256,3.925,2.772,2.167,1.303,3.445,2.521,125.0,664.0
2015-03-16,Edmonton,Canada,-113.4938,53.5461,[-113.9938 53.0461 -112.9938 54.0461],2.901,1.196,3.925,2.731,2.13,1.266,3.426,2.492,127.0,662.0
2015-03-17,Edmonton,Canada,-113.4938,53.5461,[-113.9938 53.0461 -112.9938 54.0461],2.848,1.079,3.925,2.652,2.142,1.177,3.402,2.436,124.0,668.0
2015-03-18,Edmonton,Canada,-113.4938,53.5461,[-113.9938 53.0461 -112.9938 54.0461],2.827,1.196,3.985,2.682,1.99,1.011,3.141,2.216,141.0,672.0
2015-03-19,Edmonton,Canada,-113.4938,53.5461,[-113.9938 53.0461 -112.9938 54.0461],2.827,1.196,3.985,2.682,1.97,0.997,3.122,2.2,141.0,668.0
2015-03-20,Edmonton,Canada,-113.4938,53.5461,[-113.9938 53.0461 -112.9938 54.0461],1.918,0.768,3.796,2.384,1.663,0.876,2.992,2.042,101.0,657.0
2015-03-21,Edmonton,Canada,-113.4938,53.5461,[-113.9938 53.0461 -112.9938 54.0461],1.743,0.768,3.71,2.303,1.64,0.869,2.949,2.038,113.0,662.0
2015-03-22,Edmonton,Canada,-113.4938,53.5461,[-113.9938 53.0461 -112.9938 54.0461],1.743,0.768,3.71,2.303,1.621,0.869,2.97,2.016,113.0,669.0
2015-03-23,Edmonton,Canada,-113.4938,53.5461,[-113.9938 53.0461 -112.9938 54.0461],2.677,0.941,4.369,3.041,1.713,0.877,3.07,2.133,146.0,666.0
2015-03-24,Edmonton,Canada,-113.4938,53.5461,[-113.9938 53.0461 -112.9938 54.0461],1.808,0.758,4.174,2.785,1.573,0.833,3.042,2.095,118.0,672.0
2015-03-25,Edmonton,Canada,-113.4938,53.5461,[-113.9938 53.0461 -112.9938 54.0461],1.808,0.758,4.174,2.785,1.544,0.813,2.996,2.086,118.0,680.0
2015-03-26,Edmonton,Canada,-113.4938,53.5461,[-113.9938 53.0461 -112.9938 54.0461],1.604,0.719,4.277,2.779,1.517,0.806,2.822,2.028,107.0,673.0
2015-03-27,Edmonton,Canada,-113.4938,53.5461,[-113.9938 53.0461 -112.9938 54.0461],1.604,0.687,4.158,2.625,1.436,0.752,2.658,1.848,116.0,660.0
2015-03-28,Edmonton,Canada,-113.4938,53.5461,[-113.9938 53.0461 -112.9938 54.0461],1.388,0.645,4.158,2.558,1.405,0.755,2.648,1.956,126.0,636.0
2015-03-29,Edmonton,Canada,-113.4938,53.5461,[-113.9938 53.0461 -112.9938 54.0461],1.388,0.645,4.158,2.558,1.364,0.76,2.717,1.927,126.0,680.0
2015-03-30,Edmonton,Canada,-113.4938,53.5461,[-113.9938 53.0461 -112.9938 54.0461],1.739,0.662,4.277,2.737,1.439,0.779,2.562,1.927,118.0,668.0
2015-03-31,Edmonton,Canada,-113.4938,53.5461,[-113.9938 53.0461 -112.9938 54.0461],1.866,0.758,4.174,2.707,1.531,0.774,2.698,1.961,123.0,678.0
2015-04-01,Edmonton,Canada,-113.4938,53.5461,[-113.9938 53.0461 -112.9938 54.0461],2.464,1.007,4.376,3.054,1.594,0.835,2.839,2.037,154.0,677.0
2015-04-02,Edmonton,Canada,-113.4938,53.5461,[-113.9938 53.0461 -112.9938 54.0461],2.15,0.816,4.376,2.996,1.629,0.858,2.982,2.1,144.0,684.0
2015-04-03,Edmonton,Canada,-113.4938,53.5461,[-113.9938 53.0461 -112.9938 54.0461],2.257,0.943,5.062,3.164,1.659,0.876,3.167,2.171,161.0,688.0
2015-04-04,Edmonton,Canada,-113.4938,53.5461,[-113.9938 53.0461 -112.9938 54.0461],2.398,1.021,5.197,3.221,1.805,0.958,3.238,2.219,158.0,682.0
2015-04-05,Edmonton,Canada,-113.4938,53.5461,[-113.9938 53.0461 -112.9938 54.0461],2.607,1.082,5.104,3.266,1.877,0.986,3.151,2.215,153.0,670.0
2015-04-06,Edmonton,Canada,-113.4938,53.5461,[-113.9938 53.0461 -112.9938 54.0461],2.792,1.454,5.017,3.282,1.958,1.09,3.214,2.281,196.0,675.0
2015-04-07,Edmonton,Canada,-113.4938,53.5461,[-113.9938 53.0461 -112.9938 54.0461],2.464,1.082,4.344,2.846,1.903,1.009,3.089,2.221,163.0,677.0
2015-04-08,Edmonton,Canada,-113.4938,53.5461,[-113.9938 53.0461 -112.9938 54.0461],2.464,1.454,4.187,2.812,1.936,1.093,3.084,2.207,185.0,676.0
2015-04-09,Edmonton,Canada,-113.4938,53.5461,[-113.9938 53.0461 -112.9938 54.0461],2.533,1.562,4.356,3.043,2.084,1.169,3.2,2.33,196.0,701.0
2015-04-10,Edmonton,Canada,-113.4938,53.5461,[-113.9938 53.0461 -112.9938 54.0461],2.533,1.562,4.356,3.043,2.206,1.303,3.24,2.411,196.0,706.0
2015-04-11,Edmonton,Canada,-113.4938,53.5461,[-113.9938 53.0461 -112.9938 54.0461],2.747,1.622,4.492,3.166,2.352,1.378,3.376,2.521,187.0,723.0
2015-04-12,Edmonton,Canada,-113.4938,53.5461,[-113.9938 53.0461 -112.9938 54.0461],3.124,1.815,4.724,3.334,2.313,1.338,3.34,2.369,188.0,755.0
2015-04-13,Edmonton,Canada,-113.4938,53.5461,[-113.9938 53.0461 -112.9938 54.0461],2.847,1.638,4.607,3.205,2.31,1.361,3.443,2.458,220.0,779.0
2015-04-14,Edmonton,Canada,-113.4938,53.5461,[-113.9938 53.0461 -112.9938 54.0461],3.012,1.692,4.357,3.23,2.429,1.352,3.499,2.531,224.0,800.0
2015-04-15,Edmonton,Canada,-113.4938,53.5461,[-113.9938 53.0461 -112.9938 54.0461],3.126,1.84,4.607,3.323,2.382,1.368,3.628,2.542,213.0,744.0
2015-04-16,Edmonton,Canada,-113.4938,53.5461,[-113.9938 53.0461 -112.9938 54.0461],3.124,1.692,4.356,3.197,2.343,1.217,3.637,2.544,178.0,754.0
2015-04-17,Edmonton,Canada,-113.4938,53.5461,[-113.9938 53.0461 -112.9938 54.0461],3.126,1.827,4.357,3.259,2.351,1.245,3.692,2.598,171.0,752.0
2015-04-18,Edmonton,Canada,-113.4938,53.5461,[-113.9938 53.0461 -112.9938 54.0461],3.124,1.748,4.175,3.125,2.3,1.19,3.561,2.463,155.0,759.0
2015-04-19,Edmonton,Canada,-113.4938,53.5461,[-113.9938 53.0461 -112.9938 54.0461],3.124,1.89,4.175,3.088,2.275,1.112,3.53,2.444,170.0,764.0
2015-04-20,Edmonton,Canada,-113.4938,53.5461,[-113.9938 53.0461 -112.9938 54.0461],3.156,1.937,4.313,3.113,2.329,1.119,3.591,2.464,163.0,760.0
2015-04-21,Edmonton,Canada,-113.4938,53.5461,[-113.9938 53.0461 -112.9938 54.0461],2.861,1.638,4.175,3.054,2.259,0.953,3.612,2.41,120.0,748.0
2015-04-22,Edmonton,Canada,-113.4938,53.5461,[-113.9938 53.0461 -112.9938 54.0461],2.861,1.638,4.175,3.05,2.266,0.958,3.613,2.418,124.0,754.0
2015-04-23,Edmonton,Canada,-113.4938,53.5461,[-113.9938 53.0461 -112.9938 54.0461],3.312,1.951,4.313,3.26,2.467,1.076,3.692,2.539,100.0,754.0
2015-04-24,Edmonton,Canada,-113.4938,53.5461,[-113.9938 53.0461 -112.9938 54.0461],3.138,1.385,3.993,2.897,2.34,0.846,3.538,2.397,104.0,726.0
2015-04-25,Edmonton,Canada,-113.4938,53.5461,[-113.9938 53.0461 -112.9938 54.0461],3.138,1.385,3.993,2.897,2.374,1.039,3.767,2.503,104.0,730.0
2015-04-26,Edmonton,Canada,-113.4938,53.5461,[-113.9938 53.0461 -112.9938 54.0461],3.138,1.638,4.115,3.058,2.317,1.104,3.727,2.51,112.0,716.0
2015-04-27,Edmonton,Canada,-113.4938,53.5461,[-113.9938 53.0461 -112.9938 54.0461],3.115,1.638,3.97,2.972,2.416,1.164,3.781,2.642,97.0,677.0
2015-04-28,Edmonton,Canada,-113.4938,53.5461,[-113.9938 53.0461 -112.9938 54.0461],3.276,2.402,4.115,3.242,2.502,1.451,3.876,2.688,66.0,662.0
2015-04-29,Edmonton,Canada,-113.4938,53.5461,[-113.9938 53.0461 -112.9938 54.0461],3.212,2.402,5.128,3.369,2.436,1.362,3.819,2.626,55.0,641.0
2015-04-30,Edmonton,Canada,-113.4938,53.5461,[-113.9938 53.0461 -112.9938 54.0461],3.383,2.515,4.459,3.476,2.506,1.53,3.743,2.71,62.0,707.0
2015-05-01,Edmonton,Canada,-113.4938,53.5461,[-113.9938 53.0461 -112.9938 54.0461],3.414,2.631,4.903,3.78,2.652,1.575,4.044,2.852,82.0,690.0
2015-05-02,Edmonton,Canada,-113.4938,53.5461,[-113.9938 53.0461 -112.9938 54.0461],3.212,2.316,4.408,3.448,2.572,1.569,3.885,2.781,101.0,709.0
2015-05-03,Edmonton,Canada,-113.4938,53.5461,[-113.9938 53.0461 -112.9938 54.0461],3.023,1.941,3.993,3.089,2.559,1.549,3.877,2.778,137.0,707.0
2015-05-04,Edmonton,Canada,-113.4938,53.5461,[-113.9938 53.0461 -112.9938 54.0461],2.761,1.711,3.647,3.031,2.485,1.497,3.757,2.758,131.0,726.0
2015-05-05,Edmonton,Canada,-113.4938,53.5461,[-113.9938 53.0461 -112.9938 54.0461],2.664,1.744,3.647,2.974,2.524,1.514,3.695,2.745,148.0,726.0
2015-05-06,Edmonton,Canada,-113.4938,53.5461,[-113.9938 53.0461 -112.9938 54.0461],2.664,1.744,3.647,2.974,2.509,1.438,3.69,2.7,148.0,735.0
2015-05-07,Edmonton,Canada,-113.4938,53.5461,[-113.9938 53.0461 -112.9938 54.0461],2.635,1.745,3.583,2.902,2.436,1.37,3.654,2.635,156.0,735.0
2015-05-08,Edmonton,Canada,-113.4938,53.5461,[-113.9938 53.0461 -112.9938 54.0461],2.515,1.648,3.402,2.767,2.357,1.319,3.595,2.566,152.0,754.0
2015-05-09,Edmonton,Canada,-113.4938,53.5461,[-113.9938 53.0461 -112.9938 54.0461],2.49,1.583,3.402,2.754,2.352,1.306,3.605,2.567,141.0,777.0
2015-05-10,Edmonton,Canada,-113.4938,53.5461,[-113.9938 53.0461 -112.9938 54.0461],2.224,1.248,3.196,2.454,2.291,1.247,3.484,2.479,171.0,782.0
2015-05-11,Edmonton,Canada,-113.4938,53.5461,[-113.9938 53.0461 -112.9938 54.0461],1.963,1.079,2.926,2.158,2.252,1.253,3.407,2.402,173.0,826.0
2015-05-12,Edmonton,Canada,-113.4938,53.5461,[-113.9938 53.0461 -112.9938 54.0461],1.894,0.982,2.844,2.056,2.235,1.214,3.293,2.326,209.0,833.0
2015-05-13,Edmonton,Canada,-113.4938,53.5461,[-113.9938 53.0461 -112.9938 54.0461],1.894,0.982,2.841,2.05,2.206,1.216,3.197,2.304,208.0,837.0
2015-05-14,Edmonton,Canada,-113.4938,53.5461,[-113.9938 53.0461 -112.9938 54.0461],1.902,1.079,2.869,2.097,2.188,1.218,3.139,2.297,223.0,875.0
2015-05-15,Edmonton,Canada,-113.4938,53.5461,[-113.9938 53.0461 -112.9938 54.0461],1.914,1.08,2.954,2.194,2.194,1.222,3.242,2.363,250.0,877.0
2015-05-16,Edmonton,Canada,-113.4938,53.5461,[-113.9938 53.0461 -112.9938 54.0461],1.914,1.085,3.034,2.216,2.176,1.195,3.272,2.318,237.0,917.0
2015-05-17,Edmonton,Canada,-113.4938,53.5461,[-113.9938 53.0461 -112.9938 54.0461],1.902,1.08,2.954,2.21,2.151,1.162,3.262,2.298,218.0,880.0
2015-05-18,Edmonton,Canada,-113.4938,53.5461,[-113.9938 53.0461 -112.9938 54.0461],1.902,1.085,3.034,2.271,2.137,1.201,3.236,2.326,184.0,888.0
2015-05-19,Edmonton,Canada,-113.4938,53.5461,[-113.9938 53.0461 -112.9938 54.0461],2.023,1.08,3.075,2.308,2.23,1.325,3.204,2.393,212.0,906.0
2015-05-20,Edmonton,Canada,-113.4938,53.5461,[-113.9938 53.0461 -112.9938 54.0461],1.805,0.979,3.075,2.244,2.149,1.292,3.28,2.379,201.0,944.0
2015-05-21,Edmonton,Canada,-113.4938,53.5461,[-113.9938 53.0461 -112.9938 54.0461],1.805,0.973,3.075,2.23,2.136,1.315,3.348,2.413,217.0,973.0
2015-05-22,Edmonton,Canada,-113.4938,53.5461,[-113.9938 53.0461 -112.9938 54.0461],1.783,0.887,3.191,2.222,2.135,1.306,3.379,2.412,205.0,986.0
2015-05-23,Edmonton,Canada,-113.4938,53.5461,[-113.9938 53.0461 -112.9938 54.0461],1.805,0.889,3.191,2.233,2.079,1.317,3.386,2.38,201.0,1006.0
2015-05-24,Edmonton,Canada,-113.4938,53.5461,[-113.9938 53.0461 -112.9938 54.0461],1.852,0.979,3.417,2.343,2.117,1.323,3.485,2.428,223.0,1029.0
2015-05-25,Edmonton,Canada,-113.4938,53.5461,[-113.9938 53.0461 -112.9938 54.0461],1.852,0.947,3.538,2.411,2.117,1.313,3.491,2.426,201.0,1074.0
2015-05-26,Edmonton,Canada,-113.4938,53.5461,[-113.9938 53.0461 -112.9938 54.0461],2.184,1.124,3.688,2.581,2.167,1.32,3.483,2.442,191.0,1065.0
2015-05-27,Edmonton,Canada,-113.4938,53.5461,[-113.9938 53.0461 -112.9938 54.0461],2.183,1.249,3.688,2.645,2.159,1.311,3.475,2.454,165.0,1109.0
2015-05-28,Edmonton,Canada,-113.4938,53.5461,[-113.9938 53.0461 -112.9938 54.0461],2.149,1.249,3.8,2.666,2.125,1.295,3.576,2.459,174.0,1094.0
2015-05-29,Edmonton,Canada,-113.4938,53.5461,[-113.9938 53.0461 -112.9938 54.0461],2.149,1.246,3.819,2.662,2.244,1.328,3.569,2.479,159.0,1091.0
2015-05-30,Edmonton,Canada,-113.4938,53.5461,[-113.9938 53.0461 -112.9938 54.0461],1.834,0.951,3.075,2.269,2.148,1.259,3.323,2.337,141.0,1114.0
2015-05-31,Edmonton,Canada,-113.4938,53.5461,[-113.9938 53.0461 -112.9938 54.0461],1.59,0.92,2.679,1.925,2.054,1.207,3.233,2.28,160.0,1125.0
2015-06-01,Edmonton,Canada,-113.4938,53.5461,[-113.9938 53.0461 -112.9938 54.0461],1.59,0.92,2.679,1.925,2.028,1.185,3.19,2.265,160.0,1200.0
2015-06-02,Edmonton,Canada,-113.4938,53.5461,[-113.9938 53.0461 -112.9938 54.0461],1.611,0.92,2.76,2.02,2.0,1.158,3.246,2.273,168.0,1235.0
2015-06-03,Edmonton,Canada,-113.4938,53.5461,[-113.9938 53.0461 -112.9938 54.0461],1.576,0.92,2.363,1.925,2.003,1.011,3.172,2.203,138.0,1258.0
2015-06-04,Edmonton,Canada,-113.4938,53.5461,[-113.9938 53.0461 -112.9938 54.0461],1.731,0.951,2.679,2.061,1.984,0.958,3.205,2.223,145.0,1269.0
2015-06-05,Edmonton,Canada,-113.4938,53.5461,[-113.9938 53.0461 -112.9938 54.0461],1.725,0.951,2.482,2.035,1.942,1.015,2.9,2.116,132.0,1281.0
2015-06-06,Edmonton,Canada,-113.4938,53.5461,[-113.9938 53.0461 -112.9938 54.0461],1.725,0.951,2.482,2.035,1.958,1.057,2.969,2.178,132.0,1294.0
2015-06-07,Edmonton,Canada,-113.4938,53.5461,[-113.9938 53.0461 -112.9938 54.0461],1.725,0.951,2.482,2.035,2.033,1.082,3.026,2.228,132.0,1288.0
2015-06-08,Edmonton,Canada,-113.4938,53.5461,[-113.9938 53.0461 -112.9938 54.0461],1.576,0.92,2.363,1.947,1.943,1.03,3.016,2.162,109.0,1288.0
2015-06-09,Edmonton,Canada,-113.4938,53.5461,[-113.9938 53.0461 -112.9938 54.0461],1.611,0.976,2.594,2.105,1.943,1.096,3.095,2.213,112.0,1292.0
2015-06-10,Edmonton,Canada,-113.4938,53.5461,[-113.9938 53.0461 -112.9938 54.0461],1.611,0.976,2.594,2.105,1.948,1.134,3.141,2.265,112.0,1310.0
2015-06-11,Edmonton,Canada,-113.4938,53.5461,[-113.9938 53.0461 -112.9938 54.0461],2.027,0.98,4.031,2.497,2.073,1.169,3.445,2.385,117.0,1317.0
2015-06-12,Edmonton,Canada,-113.4938,53.5461,[-113.9938 53.0461 -112.9938 54.0461],1.762,0.98,3.166,2.206,2.064,1.183,3.273,2.328,117.0,1365.0
2015-06-13,Edmonton,Canada,-113.4938,53.5461,[-113.9938 53.0461 -112.9938 54.0461],1.851,1.019,3.47,2.306,1.963,1.182,3.284,2.338,133.0,1329.0
2015-06-14,Edmonton,Canada,-113.4938,53.5461,[-113.9938 53.0461 -112.9938 54.0461],1.948,1.15,3.804,2.51,2.012,1.187,3.287,2.335,117.0,1295.0